Find Starlink 34734

NORAD ID: 65696 Int'l Des: 2025-212 Owner: SPXS Country: US Constellation: starlink operational
LEOCIRCULAR

当前视图

正在加载3D地球...

About Starlink 34734

Starlink 34734 (NORAD 65696) is a starlink constellation satellite (v2 mini) launched Sep 21, 2025 by SPXS of US. It operates in LEO, CIRCULAR orbit with a mass of 575.00 kg.

关于 Starlink 34734

正在加载描述...

即将过境

Passes for default location (London). Set your location on the main map for personalized predictions.

高度历史

Loading altitude history...

两行轨道根数

1 65696U 25212W 26166.92422258 .00025993 00000-0 84621-3 0 9991
2 65696 53.1584 248.6797 0001211 86.1199 273.9941 15.31709791 42297
Epoch: Jun 15, 2026 • Age: 8 hours

当前状态

高度 470.5 km
速度 7.63 km/s
星下点 13.03°N, 98.68°W
发射日期 Sep 21, 2025
运行时间 0.7 years
类型 internet

技术详情

分类 Payload
质量 575.00 kg
干质量 530.00 kg
总质量 575.00 kg
长度 0.30 m
直径 4.10 m
跨度 29.00 m
形状 Box + pan
制造商 SPXS
平台类型 Starlink V2MO
阶段状态 In Orbit
所有者/国家 SPXS/US

Most Searched